sat.trackr.live / text

‹ back to catalog

STARLINK-35593

NORAD 66107 · 2025-236X

PAYLOAD ACTIVE UNKNOWN

§ Identity

Operator
Country
US
Launch date
2025-10-19
Launch site
AFWTR
Launch vehicle
Mass (kg)
RCS (m²)

Purposes: comms

External: N2YO · Heavens-Above · Gunter

§ Orbital elements

Epoch: 2026-05-25T03:59:50.356320Z

Period
94.10 min
Inclination
53.1587°
Eccentricity
0.0001249
Mean motion
15.30208347 rev/d
Perigee alt
474.3 km
Apogee alt
476.0 km
Semi-major
6,853.3 km
B*
6.1956e-4
RAAN
108.6349°
Arg perigee
82.4338°
Mean anomaly
277.6805°
Rev number
3,465

§ Raw data

STARLINK-355931 66107U 25236X   26145.16655505  .00018040  00000+0  61956-3 0  99912 66107  53.1587 108.6349 0001249  82.4338 277.6805 15.30208347 34652

JSON: /api/v1/satellites/66107 · /tle

For live sub-satellite position, see the globe view (requires WebGL).

§ Visibility from observer

Set your observer location to see the next 7 days of passes ≥ 10°. The values pass through the URL so the page stays shareable.

No JS? Fill the form by hand. The geolocation button needs JavaScript.